This demonstration page uses our WeatherBlox Daily Observations layout. Learn more.

Left ArrowRight Arrow

36.17497, -115.13722

Hourly Observations for March 30, 2020

Temp ( °F °C ) Dew Point ( °F °C ) Humidity (%) Winds ( mph kmh ) Pressure ( in mb ) Visibility ( mi km ) Precip ( " mm )
12:53 am 00:53 Clear 55 12.8 35 1.7 47 47 NNW 8 13 30.06 1018 10 16 0.00 0.00
1:53 am 01:53 Clear 54 12.2 35 1.7 49 49 WNW 12 19 30.06 1018 10 16 0.00 0.00
2:53 am 02:53 Clear 54 12.2 34 1.1 47 47 NNW 7 11 30.09 1019 10 16 0.00 0.00
3:53 am 03:53 Clear 50 10 35 1.7 57 57 NNE 5 7 30.10 1019 10 16 0.00 0.00
4:53 am 04:53 Clear 51 10.6 35 1.7 54 54 N 6 9 30.14 1021 10 16 0.00 0.00
5:53 am 05:53 Clear 50 10 35 1.7 57 57 N 3 6 30.17 1022 10 16 0.00 0.00
6:53 am 06:53 Sunny 50 10 35 1.7 57 57 NW 14 22 30.20 1023 10 16 0.00 0.00
7:53 am 07:53 Sunny 54 12.2 35 1.7 49 49 NNW 13 20 30.23 1024 10 16 0.00 0.00
8:53 am 08:53 Sunny 58 14.4 34 1.1 41 41 NW 10 17 30.24 1024 10 16 0.00 0.00
9:53 am 09:53 Sunny 61 16.1 34 1.1 36 36 VRB 6 9 30.24 1024 10 16 0.00 0.00
10:53 am 10:53 Sunny 63 17.2 33 0.6 33 33 N 7 11 30.25 1024 10 16 0.00 0.00
11:53 am 11:53 Sunny 64 17.8 35 1.7 34 34 NNW 3 6 30.24 1024 10 16 0.00 0.00
12:53 pm 12:53 Sunny 65 18.3 34 1.1 32 32 SE 5 7 30.22 1023 10 16 0.00 0.00
1:53 pm 13:53 Sunny 67 19.4 33 0.6 28 28 VRB 5 7 30.20 1023 10 16 0.00 0.00
2:53 pm 14:53 Sunny 69 20.6 32 0 25 25 SE 7 11 30.17 1022 10 16 0.00 0.00
3:53 pm 15:53 Sunny 71 21.7 31 -0.6 23 23 VRB 5 7 30.15 1021 10 16 0.00 0.00
4:53 pm 16:53 Sunny 71 21.7 30 -1.1 22 22 VRB 3 6 30.14 1021 10 16 0.00 0.00
5:53 pm 17:53 Sunny 70 21.1 30 -1.1 23 23 E 7 11 30.14 1021 10 16 0.00 0.00
6:53 pm 18:53 Sunny 67 19.4 31 -0.6 26 26 E 8 13 30.15 1021 10 16 0.00 0.00
7:53 pm 19:53 Clear 65 18.3 31 -0.6 28 28 E 5 7 30.16 1021 10 16 0.00 0.00
8:53 pm 20:53 Clear 65 18.3 31 -0.6 28 28 Calm 30.17 1022 10 16 0.00 0.00
9:53 pm 21:53 Clear 62 16.7 33 0.6 34 34 N 5 7 30.18 1022 10 16 0.00 0.00
10:53 pm 22:53 Clear 61 16.1 33 0.6 35 35 WNW 6 9 30.17 1022 10 16 0.00 0.00
11:53 pm 23:53 Clear 57 13.9 33 0.6 41 41 WNW 6 9 30.17 1022 10 16 0.00 0.00

Powered by AerisWeather